sat.trackr.live / text

‹ back to catalog

STARLINK-32048

NORAD 60156 · 2024-120X

PAYLOAD ACTIVE UNKNOWN

§ Identity

Operator
Country
US
Launch date
2024-06-27
Launch site
AFETR
Launch vehicle
Mass (kg)
RCS (m²)

Purposes: comms

External: N2YO · Heavens-Above · Gunter

§ Orbital elements

Epoch: 2026-05-24T23:07:53.762016Z

Period
94.11 min
Inclination
53.1606°
Eccentricity
0.0001273
Mean motion
15.30193718 rev/d
Perigee alt
474.4 km
Apogee alt
476.1 km
Semi-major
6,853.4 km
B*
1.0638e-5
RAAN
325.6677°
Arg perigee
88.6564°
Mean anomaly
271.4583°
Rev number
10,805

§ Raw data

STARLINK-320481 60156U 24120X   26144.96381669 -.00000044  00000+0  10638-4 0  99922 60156  53.1606 325.6677 0001273  88.6564 271.4583 15.30193718108059

JSON: /api/v1/satellites/60156 · /tle

For live sub-satellite position, see the globe view (requires WebGL).

§ Visibility from observer

Set your observer location to see the next 7 days of passes ≥ 10°. The values pass through the URL so the page stays shareable.

No JS? Fill the form by hand. The geolocation button needs JavaScript.